Time,TemperatureF,DewpointF,PressureIn,WindDirection,WindDirectionDegrees,WindSpeedMPH,WindSpeedGustMPH,Humidity,HourlyPrecipIn,Conditions,Clouds,dailyrainin,SoftwareType,DateUTC
2013-10-08 00:01:00,55.8,47.3,29.86,SSW,203,2.5,4.5,73,0.00,,,0.00,WUHU216HW,2013-10-08 04:01:00,
2013-10-08 00:06:00,55.8,47.3,29.86,SSW,203,2.9,4.7,73,0.00,,,0.00,WUHU216HW,2013-10-08 04:06:00,
2013-10-08 00:11:00,55.8,47.3,29.86,SSE,158,4.0,5.4,73,0.00,,,0.00,WUHU216HW,2013-10-08 04:11:00,
2013-10-08 00:16:00,55.8,47.3,29.87,SSW,203,1.1,5.4,73,0.00,,,0.00,WUHU216HW,2013-10-08 04:16:00,
2013-10-08 00:21:00,55.8,47.3,29.87,South,180,3.1,4.5,73,0.00,,,0.00,WUHU216HW,2013-10-08 04:21:00,
2013-10-08 00:26:00,55.8,47.3,29.86,SSE,158,1.8,4.7,73,0.00,,,0.00,WUHU216HW,2013-10-08 04:26:00,
2013-10-08 00:31:00,55.8,47.3,29.87,SW,225,0.4,4.7,73,0.00,,,0.00,WUHU216HW,2013-10-08 04:31:00,
2013-10-08 00:36:00,55.8,47.3,29.87,WSW,248,1.8,2.0,73,0.00,,,0.00,WUHU216HW,2013-10-08 04:36:00,
2013-10-08 00:41:00,56.0,47.1,29.87,SW,225,2.5,2.5,72,0.00,,,0.00,WUHU216HW,2013-10-08 04:41:00,
2013-10-08 00:46:00,56.0,47.1,29.87,WSW,248,1.6,2.5,72,0.00,,,0.00,WUHU216HW,2013-10-08 04:46:00,
2013-10-08 00:51:00,56.2,47.3,29.88,SW,225,0.7,2.2,72,0.00,,,0.00,WUHU216HW,2013-10-08 04:51:00,
2013-10-08 00:56:00,56.3,47.1,29.88,WSW,248,0.9,2.2,71,0.00,,,0.00,WUHU216HW,2013-10-08 04:56:00,
2013-10-08 01:01:00,56.3,47.1,29.89,SW,225,1.3,2.0,71,0.00,,,0.00,WUHU216HW,2013-10-08 05:01:00,
2013-10-08 01:06:00,56.3,47.4,29.89,SSW,203,3.6,3.6,72,0.00,,,0.00,WUHU216HW,2013-10-08 05:06:00,
2013-10-08 01:11:00,56.3,47.4,29.89,SSW,203,1.1,3.6,72,0.00,,,0.00,WUHU216HW,2013-10-08 05:11:00,
2013-10-08 01:16:00,56.2,47.3,29.90,ESE,113,2.0,2.0,72,0.00,,,0.00,WUHU216HW,2013-10-08 05:16:00,
2013-10-08 01:21:00,56.0,47.1,29.90,ESE,113,1.3,2.0,72,0.00,,,0.00,WUHU216HW,2013-10-08 05:21:00,
2013-10-08 01:26:00,55.8,47.3,29.90,East,90,0.7,2.0,73,0.00,,,0.00,WUHU216HW,2013-10-08 05:26:00,
2013-10-08 01:31:00,55.8,47.3,29.91,ESE,113,1.1,2.0,73,0.00,,,0.00,WUHU216HW,2013-10-08 05:31:00,
2013-10-08 01:36:00,55.4,46.9,29.92,ESE,113,0.4,1.6,73,0.00,,,0.00,WUHU216HW,2013-10-08 05:36:00,
2013-10-08 01:41:00,55.4,46.9,29.92,East,90,1.3,1.8,73,0.00,,,0.00,WUHU216HW,2013-10-08 05:41:00,
2013-10-08 01:46:00,55.3,46.7,29.91,SE,135,0.4,2.0,73,0.00,,,0.00,WUHU216HW,2013-10-08 05:46:00,
2013-10-08 01:51:00,55.1,46.9,29.92,SSW,203,0.2,2.0,74,0.00,,,0.00,WUHU216HW,2013-10-08 05:51:00,
2013-10-08 01:56:00,55.1,46.6,29.92,ESE,113,0.0,1.8,73,0.00,,,0.00,WUHU216HW,2013-10-08 05:56:00,
2013-10-08 02:01:00,55.3,47.1,29.93,NNW,338,4.7,4.7,74,0.00,,,0.00,WUHU216HW,2013-10-08 06:01:00,
2013-10-08 02:06:00,56.0,45.5,29.93,NW,315,2.7,4.7,68,0.00,,,0.00,WUHU216HW,2013-10-08 06:06:00,
2013-10-08 02:11:00,57.2,45.5,29.93,NW,315,8.9,12.5,65,0.00,,,0.00,WUHU216HW,2013-10-08 06:11:00,
2013-10-08 02:16:00,57.2,45.5,29.93,NW,315,8.9,12.5,65,0.00,,,0.00,WUHU216HW,2013-10-08 06:16:00,
2013-10-08 02:41:00,57.6,43.4,29.94,NW,315,18.1,18.1,59,0.00,,,0.00,WUHU216HW,2013-10-08 06:41:00,
2013-10-08 02:46:00,57.4,42.8,29.94,NW,315,15.4,18.1,58,0.00,,,0.00,WUHU216HW,2013-10-08 06:46:00,
2013-10-08 02:51:00,57.6,43.4,29.94,NW,315,14.5,18.1,59,0.00,,,0.00,WUHU216HW,2013-10-08 06:51:00,
2013-10-08 02:56:00,57.4,42.3,29.94,WNW,293,20.8,20.8,57,0.00,,,0.00,WUHU216HW,2013-10-08 06:56:00,
2013-10-08 03:01:00,57.2,42.1,29.95,NW,315,14.5,20.8,57,0.00,,,0.00,WUHU216HW,2013-10-08 07:01:00,
2013-10-08 03:06:00,57.2,43.9,29.95,NW,315,18.1,19.0,61,0.00,,,0.00,WUHU216HW,2013-10-08 07:06:00,
2013-10-08 03:11:00,57.1,42.9,29.95,NW,315,15.0,21.7,59,0.00,,,0.00,WUHU216HW,2013-10-08 07:11:00,
2013-10-08 03:16:00,57.1,42.5,29.95,NW,315,17.2,21.7,58,0.00,,,0.00,WUHU216HW,2013-10-08 07:16:00,
2013-10-08 03:21:00,56.9,44.0,29.96,NW,315,11.6,18.6,62,0.00,,,0.00,WUHU216HW,2013-10-08 07:21:00,
2013-10-08 03:26:00,56.7,43.0,29.96,NNW,338,12.8,18.6,60,0.00,,,0.00,WUHU216HW,2013-10-08 07:26:00,
2013-10-08 03:31:00,56.5,43.7,29.96,NW,315,11.0,17.0,62,0.00,,,0.00,WUHU216HW,2013-10-08 07:31:00,
2013-10-08 03:36:00,56.2,43.8,29.97,NW,315,9.4,11.9,63,0.00,,,0.00,WUHU216HW,2013-10-08 07:36:00,
2013-10-08 03:41:00,56.2,43.8,29.97,NW,315,9.4,11.9,63,0.00,,,0.00,WUHU216HW,2013-10-08 07:41:00,
2013-10-08 03:46:00,56.2,43.8,29.97,NW,315,9.4,9.4,63,0.00,,,0.00,WUHU216HW,2013-10-08 07:46:00,
2013-10-08 04:00:00,55.6,44.0,30.00,NW,315,8.5,8.5,65,0.00,,,0.00,WUHU216HW,2013-10-08 08:00:00,
2013-10-08 04:05:00,55.6,44.4,30.00,NW,315,9.4,12.1,66,0.00,,,0.00,WUHU216HW,2013-10-08 08:05:00,
2013-10-08 04:10:00,55.4,43.4,30.00,NW,315,9.4,12.1,64,0.00,,,0.00,WUHU216HW,2013-10-08 08:10:00,
2013-10-08 04:15:00,55.4,43.4,30.00,NW,315,9.6,12.1,64,0.00,,,0.00,WUHU216HW,2013-10-08 08:15:00,
2013-10-08 04:19:00,55.4,43.0,30.00,NW,315,8.1,10.1,63,0.00,,,0.00,WUHU216HW,2013-10-08 08:19:00,
2013-10-08 04:24:00,55.3,43.3,30.01,NW,315,9.2,10.1,64,0.00,,,0.00,WUHU216HW,2013-10-08 08:24:00,
2013-10-08 04:29:00,55.3,43.3,30.01,NNW,338,9.4,9.8,64,0.00,,,0.00,WUHU216HW,2013-10-08 08:29:00,
2013-10-08 04:34:00,55.1,42.3,30.02,WNW,293,8.5,10.5,62,0.00,,,0.00,WUHU216HW,2013-10-08 08:34:00,
2013-10-08 04:39:00,55.1,43.1,30.02,NNW,338,8.5,10.5,64,0.00,,,0.00,WUHU216HW,2013-10-08 08:39:00,
2013-10-08 04:44:00,55.1,42.7,30.03,WNW,293,6.3,9.8,63,0.00,,,0.00,WUHU216HW,2013-10-08 08:44:00,
2013-10-08 04:49:00,54.9,42.9,30.03,WNW,293,9.8,9.8,64,0.00,,,0.00,WUHU216HW,2013-10-08 08:49:00,
2013-10-08 04:55:00,54.9,42.5,30.03,NW,315,9.2,11.0,63,0.00,,,0.00,WUHU216HW,2013-10-08 08:55:00,
2013-10-08 05:00:00,54.7,42.0,30.03,WNW,293,6.3,11.0,62,0.00,,,0.00,WUHU216HW,2013-10-08 09:00:00,
2013-10-08 05:05:00,54.7,42.3,30.04,NNW,338,11.2,11.2,63,0.00,,,0.00,WUHU216HW,2013-10-08 09:05:00,
2013-10-08 05:10:00,54.5,41.8,30.04,NNW,338,5.8,11.2,62,0.00,,,0.00,WUHU216HW,2013-10-08 09:10:00,
2013-10-08 05:15:00,54.4,42.4,30.05,NNW,338,4.7,8.5,64,0.00,,,0.00,WUHU216HW,2013-10-08 09:15:00,
2013-10-08 05:20:00,54.4,42.0,30.05,NW,315,4.9,5.6,63,0.00,,,0.00,WUHU216HW,2013-10-08 09:20:00,
2013-10-08 05:25:00,54.2,42.2,30.05,NW,315,1.8,4.9,64,0.00,,,0.00,WUHU216HW,2013-10-08 09:25:00,
2013-10-08 05:30:00,54.2,41.9,30.05,NW,315,4.0,4.9,63,0.00,,,0.00,WUHU216HW,2013-10-08 09:30:00,
2013-10-08 05:34:00,54.0,41.2,30.06,NW,315,5.4,5.4,62,0.00,,,0.00,WUHU216HW,2013-10-08 09:34:00,
2013-10-08 05:39:00,54.0,41.7,30.06,NNW,338,5.8,5.8,63,0.00,,,0.00,WUHU216HW,2013-10-08 09:39:00,
2013-10-08 05:44:00,54.0,41.7,30.06,NW,315,6.9,7.6,63,0.00,,,0.00,WUHU216HW,2013-10-08 09:44:00,
2013-10-08 05:49:00,54.0,41.2,30.06,NW,315,4.0,7.6,62,0.00,,,0.00,WUHU216HW,2013-10-08 09:49:00,
2013-10-08 05:54:00,53.8,41.1,30.07,NW,315,7.2,7.4,62,0.00,,,0.00,WUHU216HW,2013-10-08 09:54:00,
2013-10-08 05:59:00,53.8,41.1,30.07,NNW,338,1.8,7.2,62,0.00,,,0.00,WUHU216HW,2013-10-08 09:59:00,
2013-10-08 06:04:00,53.6,41.0,30.07,North,0,1.6,5.1,62,0.00,,,0.00,WUHU216HW,2013-10-08 10:04:00,
2013-10-08 06:09:00,53.3,40.6,30.08,NNW,338,3.4,3.4,62,0.00,,,0.00,WUHU216HW,2013-10-08 10:09:00,
2013-10-08 06:14:00,53.1,40.4,30.08,NNW,338,4.3,4.3,62,0.00,,,0.00,WUHU216HW,2013-10-08 10:14:00,
2013-10-08 06:19:00,53.3,41.0,30.08,NNW,338,2.9,7.6,63,0.00,,,0.00,WUHU216HW,2013-10-08 10:19:00,
2013-10-08 06:24:00,53.5,40.8,30.08,NW,315,6.3,7.6,62,0.00,,,0.00,WUHU216HW,2013-10-08 10:24:00,
2013-10-08 06:29:00,53.3,41.0,30.09,NW,315,2.5,6.9,63,0.00,,,0.00,WUHU216HW,2013-10-08 10:29:00,
2013-10-08 06:35:00,53.3,41.0,30.09,NW,315,4.9,5.8,63,0.00,,,0.00,WUHU216HW,2013-10-08 10:35:00,
2013-10-08 06:40:00,53.3,40.6,30.10,NW,315,2.0,8.5,62,0.00,,,0.00,WUHU216HW,2013-10-08 10:40:00,
2013-10-08 06:45:00,53.3,40.6,30.10,NNW,338,3.1,8.5,62,0.00,,,0.00,WUHU216HW,2013-10-08 10:45:00,
2013-10-08 06:50:00,53.3,39.8,30.10,NNW,338,2.5,10.1,60,0.00,,,0.00,WUHU216HW,2013-10-08 10:50:00,
2013-10-08 06:55:00,53.1,40.0,30.11,NNW,338,5.1,10.1,61,0.00,,,0.00,WUHU216HW,2013-10-08 10:55:00,
2013-10-08 07:00:00,52.9,39.8,30.11,NNW,338,6.3,6.9,61,0.00,,,0.00,WUHU216HW,2013-10-08 11:00:00,
2013-10-08 07:05:00,52.9,40.2,30.11,NNW,338,7.8,8.3,62,0.00,,,0.00,WUHU216HW,2013-10-08 11:05:00,
2013-10-08 07:10:00,52.9,40.6,30.11,NW,315,10.1,10.1,63,0.00,,,0.00,WUHU216HW,2013-10-08 11:10:00,
2013-10-08 07:15:00,52.9,40.2,30.11,NW,315,7.4,10.7,62,0.00,,,0.00,WUHU216HW,2013-10-08 11:15:00,
2013-10-08 07:20:00,52.9,40.2,30.12,NW,315,12.5,12.5,62,0.00,,,0.00,WUHU216HW,2013-10-08 11:20:00,
2013-10-08 07:25:00,53.1,40.4,30.12,NNW,338,15.0,15.0,62,0.00,,,0.00,WUHU216HW,2013-10-08 11:25:00,
2013-10-08 07:30:00,53.1,40.4,30.13,NNW,338,14.5,15.0,62,0.00,,,0.00,WUHU216HW,2013-10-08 11:30:00,
2013-10-08 07:35:00,53.1,40.8,30.13,NNW,338,14.1,15.0,63,0.00,,,0.00,WUHU216HW,2013-10-08 11:35:00,
2013-10-08 07:40:00,53.1,40.4,30.13,NNW,338,14.5,16.6,62,0.00,,,0.00,WUHU216HW,2013-10-08 11:40:00,
2013-10-08 07:45:00,53.1,39.6,30.13,NW,315,14.3,16.6,60,0.00,,,0.00,WUHU216HW,2013-10-08 11:45:00,
2013-10-08 07:50:00,53.1,39.2,30.14,NW,315,14.8,16.1,59,0.00,,,0.00,WUHU216HW,2013-10-08 11:50:00,
2013-10-08 07:55:00,52.9,39.0,30.14,NW,315,11.0,15.0,59,0.00,,,0.00,WUHU216HW,2013-10-08 11:55:00,
2013-10-08 08:00:00,52.9,38.1,30.15,NW,315,8.5,15.0,57,0.00,,,0.00,WUHU216HW,2013-10-08 12:00:00,
2013-10-08 08:05:00,52.9,38.5,30.15,NW,315,9.8,13.4,58,0.00,,,0.00,WUHU216HW,2013-10-08 12:05:00,
2013-10-08 08:10:00,52.9,39.0,30.16,NW,315,6.9,12.8,59,0.00,,,0.00,WUHU216HW,2013-10-08 12:10:00,
2013-10-08 08:15:00,52.7,38.4,30.16,NNW,338,7.2,9.8,58,0.00,,,0.00,WUHU216HW,2013-10-08 12:15:00,
2013-10-08 08:20:00,52.7,38.4,30.17,WNW,293,6.3,9.8,58,0.00,,,0.00,WUHU216HW,2013-10-08 12:20:00,
2013-10-08 08:25:00,52.7,38.4,30.17,NNW,338,6.3,8.5,58,0.00,,,0.00,WUHU216HW,2013-10-08 12:25:00,
2013-10-08 08:30:00,52.7,38.4,30.18,NW,315,6.0,8.5,58,0.00,,,0.00,WUHU216HW,2013-10-08 12:30:00,
2013-10-08 08:35:00,52.7,38.4,30.18,NW,315,5.8,8.5,58,0.00,,,0.00,WUHU216HW,2013-10-08 12:35:00,
2013-10-08 08:40:00,52.9,38.5,30.18,NW,315,4.3,6.0,58,0.00,,,0.00,WUHU216HW,2013-10-08 12:40:00,
2013-10-08 08:45:00,52.7,38.8,30.18,NW,315,6.3,6.3,59,0.00,,,0.00,WUHU216HW,2013-10-08 12:45:00,
2013-10-08 08:50:00,52.9,38.5,30.18,NW,315,7.6,7.8,58,0.00,,,0.00,WUHU216HW,2013-10-08 12:50:00,
2013-10-08 08:55:00,52.9,38.5,30.18,NW,315,9.2,9.2,58,0.00,,,0.00,WUHU216HW,2013-10-08 12:55:00,
2013-10-08 09:00:00,52.9,37.6,30.18,NNW,338,7.6,9.2,56,0.00,,,0.00,WUHU216HW,2013-10-08 13:00:00,
2013-10-08 09:05:00,52.9,38.1,30.19,NW,315,6.3,8.5,57,0.00,,,0.00,WUHU216HW,2013-10-08 13:05:00,
2013-10-08 09:10:00,53.1,38.3,30.19,NW,315,4.7,6.7,57,0.00,,,0.00,WUHU216HW,2013-10-08 13:10:00,
2013-10-08 09:15:00,53.1,38.3,30.19,NNW,338,3.8,4.7,57,0.00,,,0.00,WUHU216HW,2013-10-08 13:15:00,
2013-10-08 09:20:00,53.1,38.3,30.19,NW,315,1.1,4.7,57,0.00,,,0.00,WUHU216HW,2013-10-08 13:20:00,
2013-10-08 09:25:00,53.3,38.9,30.20,NW,315,0.4,4.0,58,0.00,,,0.00,WUHU216HW,2013-10-08 13:25:00,
2013-10-08 09:30:00,53.5,39.5,30.20,NNW,338,2.7,2.7,59,0.00,,,0.00,WUHU216HW,2013-10-08 13:30:00,
2013-10-08 09:35:00,53.6,39.7,30.20,ESE,113,0.4,2.7,59,0.00,,,0.00,WUHU216HW,2013-10-08 13:35:00,
2013-10-08 09:40:00,53.6,39.3,30.20,NNW,338,2.0,2.0,58,0.00,,,0.00,WUHU216HW,2013-10-08 13:40:00,
2013-10-08 09:45:00,53.8,39.3,30.21,NNE,23,2.5,2.5,58,0.00,,,0.00,WUHU216HW,2013-10-08 13:45:00,
2013-10-08 09:50:00,53.8,38.9,30.21,NNW,338,1.3,5.4,57,0.00,,,0.00,WUHU216HW,2013-10-08 13:50:00,
2013-10-08 09:55:00,54.0,39.5,30.21,West,270,0.4,5.4,58,0.00,,,0.00,WUHU216HW,2013-10-08 13:55:00,
2013-10-08 10:00:00,54.4,39.4,30.21,NNW,338,1.1,3.8,57,0.00,,,0.00,WUHU216HW,2013-10-08 14:00:00,
2013-10-08 10:05:00,54.5,40.1,30.21,ENE,68,0.9,2.0,58,0.00,,,0.00,WUHU216HW,2013-10-08 14:05:00,
2013-10-08 10:10:00,54.7,39.7,30.21,North,0,0.7,1.8,57,0.00,,,0.00,WUHU216HW,2013-10-08 14:10:00,
2013-10-08 10:15:00,55.1,40.1,30.21,NNW,338,0.7,1.8,57,0.00,,,0.00,WUHU216HW,2013-10-08 14:15:00,
2013-10-08 10:20:00,55.1,40.1,30.21,ESE,113,0.7,1.6,57,0.00,,,0.00,WUHU216HW,2013-10-08 14:20:00,
2013-10-08 10:25:00,55.4,39.9,30.21,NW,315,0.4,4.9,56,0.00,,,0.00,WUHU216HW,2013-10-08 14:25:00,
2013-10-08 10:30:00,55.4,39.9,30.22,NNE,23,2.5,4.9,56,0.00,,,0.00,WUHU216HW,2013-10-08 14:30:00,
2013-10-08 10:35:00,55.4,39.9,30.21,North,0,2.0,2.9,56,0.00,,,0.00,WUHU216HW,2013-10-08 14:35:00,
2013-10-08 10:40:00,55.4,39.9,30.21,NNW,338,3.4,3.4,56,0.00,,,0.00,WUHU216HW,2013-10-08 14:40:00,
2013-10-08 10:45:00,55.1,39.1,30.21,NW,315,4.5,4.7,55,0.00,,,0.00,WUHU216HW,2013-10-08 14:45:00,
2013-10-08 10:50:00,55.1,39.1,30.22,NNW,338,3.4,4.7,55,0.00,,,0.00,WUHU216HW,2013-10-08 14:50:00,
2013-10-08 10:55:00,55.3,39.2,30.21,NW,315,0.4,4.7,55,0.00,,,0.00,WUHU216HW,2013-10-08 14:55:00,
2013-10-08 11:00:00,55.6,39.6,30.21,NW,315,2.5,2.5,55,0.00,,,0.00,WUHU216HW,2013-10-08 15:00:00,
2013-10-08 11:05:00,55.8,39.8,30.22,East,90,0.4,2.5,55,0.00,,,0.00,WUHU216HW,2013-10-08 15:05:00,
2013-10-08 11:10:00,56.0,40.0,30.22,NW,315,2.5,2.5,55,0.00,,,0.00,WUHU216HW,2013-10-08 15:10:00,
2013-10-08 11:15:00,56.2,40.1,30.22,NW,315,1.1,2.5,55,0.00,,,0.00,WUHU216HW,2013-10-08 15:15:00,
2013-10-08 11:20:00,56.3,39.9,30.23,NW,315,1.6,1.8,54,0.00,,,0.00,WUHU216HW,2013-10-08 15:20:00,
2013-10-08 11:25:00,56.2,39.7,30.23,NNW,338,1.6,1.8,54,0.00,,,0.00,WUHU216HW,2013-10-08 15:25:00,
2013-10-08 11:30:00,56.2,39.7,30.23,NNW,338,1.6,1.8,54,0.00,,,0.00,WUHU216HW,2013-10-08 15:30:00,
2013-10-08 11:53:00,56.3,39.4,30.24,NNW,338,3.8,3.8,53,0.00,,,0.00,WUHU216HW,2013-10-08 15:53:00,
2013-10-08 11:58:00,56.3,39.4,30.24,NW,315,3.8,3.8,53,0.00,,,0.00,WUHU216HW,2013-10-08 15:58:00,
2013-10-08 12:03:00,56.3,39.4,30.24,NW,315,1.8,3.8,53,0.01,,,0.00,WUHU216HW,2013-10-08 16:03:00,
2013-10-08 12:08:00,56.5,39.6,30.24,NW,315,3.6,3.6,53,0.01,,,0.02,WUHU216HW,2013-10-08 16:08:00,
2013-10-08 12:13:00,56.5,39.6,30.24,NW,315,4.3,4.3,53,0.01,,,0.02,WUHU216HW,2013-10-08 16:13:00,
2013-10-08 12:18:00,56.5,39.1,30.23,NNW,338,2.5,4.3,52,0.01,,,0.02,WUHU216HW,2013-10-08 16:18:00,
2013-10-08 12:23:00,56.7,39.8,30.23,NW,315,2.5,4.0,53,0.01,,,0.02,WUHU216HW,2013-10-08 16:23:00,
2013-10-08 12:28:00,56.9,39.0,30.24,NW,315,2.5,5.1,51,0.01,,,0.02,WUHU216HW,2013-10-08 16:28:00,
2013-10-08 12:33:00,57.1,39.6,30.23,NNW,338,0.9,5.1,52,0.01,,,0.02,WUHU216HW,2013-10-08 16:33:00,
2013-10-08 12:38:00,57.2,39.8,30.24,NNE,23,2.5,3.8,52,0.01,,,0.02,WUHU216HW,2013-10-08 16:38:00,
2013-10-08 12:43:00,57.6,40.1,30.24,North,0,1.8,3.8,52,0.01,,,0.02,WUHU216HW,2013-10-08 16:43:00,
2013-10-08 12:48:00,58.0,40.0,30.24,ESE,113,2.5,2.5,51,0.01,,,0.02,WUHU216HW,2013-10-08 16:48:00,
2013-10-08 12:53:00,58.3,40.3,30.23,NW,315,0.4,2.5,51,0.01,,,0.02,WUHU216HW,2013-10-08 16:53:00,
2013-10-08 12:58:00,58.3,39.9,30.23,SE,135,0.7,2.9,50,0.01,,,0.02,WUHU216HW,2013-10-08 16:58:00,
2013-10-08 13:03:00,58.3,39.9,30.23,NW,315,0.9,2.9,50,0.00,,,0.02,WUHU216HW,2013-10-08 17:03:00,
2013-10-08 13:08:00,58.5,40.1,30.23,West,270,1.8,2.0,50,0.00,,,0.02,WUHU216HW,2013-10-08 17:08:00,
2013-10-08 13:13:00,58.9,39.8,30.23,SE,135,3.6,3.8,49,0.00,,,0.02,WUHU216HW,2013-10-08 17:13:00,
2013-10-08 13:18:00,59.2,40.1,30.23,NW,315,1.1,4.7,49,0.00,,,0.02,WUHU216HW,2013-10-08 17:18:00,
2013-10-08 13:23:00,59.4,39.7,30.23,ESE,113,2.0,4.7,48,0.00,,,0.02,WUHU216HW,2013-10-08 17:23:00,
2013-10-08 13:28:00,59.4,39.7,30.23,NNW,338,0.0,2.0,48,0.00,,,0.02,WUHU216HW,2013-10-08 17:28:00,
2013-10-08 13:33:00,59.6,40.4,30.23,North,0,1.1,2.7,49,0.00,,,0.02,WUHU216HW,2013-10-08 17:33:00,
2013-10-08 13:38:00,59.8,40.6,30.23,NNE,23,1.3,2.7,49,0.00,,,0.02,WUHU216HW,2013-10-08 17:38:00,
2013-10-08 13:43:00,60.1,40.9,30.23,ESE,113,0.4,3.1,49,0.00,,,0.02,WUHU216HW,2013-10-08 17:43:00,
2013-10-08 13:48:00,60.1,40.9,30.24,North,0,1.1,3.1,49,0.00,,,0.02,WUHU216HW,2013-10-08 17:48:00,
2013-10-08 13:53:00,60.1,40.9,30.24,ESE,113,1.3,1.6,49,0.00,,,0.02,WUHU216HW,2013-10-08 17:53:00,
2013-10-08 13:58:00,60.1,40.9,30.24,ENE,68,2.0,2.5,49,0.00,,,0.02,WUHU216HW,2013-10-08 17:58:00,
2013-10-08 14:03:00,60.5,41.2,30.24,SE,135,3.1,4.0,49,0.00,,,0.02,WUHU216HW,2013-10-08 18:03:00,
2013-10-08 14:08:00,60.8,41.6,30.24,East,90,2.2,5.4,49,0.00,,,0.02,WUHU216HW,2013-10-08 18:08:00,
2013-10-08 14:13:00,60.8,41.6,30.24,ESE,113,0.7,5.4,49,0.00,,,0.02,WUHU216HW,2013-10-08 18:13:00,
2013-10-08 14:18:00,61.2,41.9,30.24,ENE,68,2.0,4.5,49,0.00,,,0.02,WUHU216HW,2013-10-08 18:18:00,
2013-10-08 14:23:00,61.2,41.9,30.24,East,90,3.4,3.4,49,0.00,,,0.02,WUHU216HW,2013-10-08 18:23:00,
2013-10-08 14:28:00,61.4,42.0,30.24,ENE,68,2.5,4.0,49,0.00,,,0.02,WUHU216HW,2013-10-08 18:28:00,
2013-10-08 14:33:00,61.4,42.0,30.24,East,90,3.4,5.1,49,0.00,,,0.02,WUHU216HW,2013-10-08 18:33:00,
2013-10-08 14:38:00,61.4,42.0,30.25,ESE,113,1.6,5.1,49,0.00,,,0.02,WUHU216HW,2013-10-08 18:38:00,
2013-10-08 14:43:00,61.4,42.0,30.25,East,90,3.1,4.3,49,0.00,,,0.02,WUHU216HW,2013-10-08 18:43:00,
2013-10-08 14:48:00,61.6,42.2,30.25,SE,135,3.4,4.3,49,0.00,,,0.02,WUHU216HW,2013-10-08 18:48:00,
2013-10-08 14:53:00,61.6,42.2,30.25,East,90,2.9,4.3,49,0.00,,,0.02,WUHU216HW,2013-10-08 18:53:00,
2013-10-08 14:58:00,61.7,42.4,30.25,ESE,113,3.4,4.3,49,0.00,,,0.02,WUHU216HW,2013-10-08 18:58:00,
2013-10-08 15:03:00,61.7,42.4,30.25,SE,135,5.4,5.4,49,0.00,,,0.02,WUHU216HW,2013-10-08 19:03:00,
2013-10-08 15:08:00,61.9,43.1,30.25,SE,135,3.8,6.9,50,0.00,,,0.02,WUHU216HW,2013-10-08 19:08:00,
2013-10-08 15:13:00,61.7,42.9,30.25,SSE,158,8.1,8.1,50,0.00,,,0.02,WUHU216HW,2013-10-08 19:13:00,
2013-10-08 15:18:00,61.9,43.1,30.25,SW,225,2.9,8.1,50,0.00,,,0.02,WUHU216HW,2013-10-08 19:18:00,
2013-10-08 15:23:00,62.1,43.3,30.25,ESE,113,1.3,5.4,50,0.00,,,0.02,WUHU216HW,2013-10-08 19:23:00,
2013-10-08 15:28:00,62.3,42.8,30.25,SE,135,2.9,5.4,49,0.00,,,0.02,WUHU216HW,2013-10-08 19:28:00,
2013-10-08 15:33:00,62.3,42.3,30.25,SE,135,0.2,4.7,48,0.00,,,0.02,WUHU216HW,2013-10-08 19:33:00,
2013-10-08 15:38:00,62.5,43.0,30.25,ENE,68,2.5,3.4,49,0.00,,,0.02,WUHU216HW,2013-10-08 19:38:00,
2013-10-08 15:43:00,63.5,44.6,30.25,East,90,1.6,3.8,50,0.00,,,0.02,WUHU216HW,2013-10-08 19:43:00,
2013-10-08 15:53:00,63.9,44.9,30.25,West,270,1.1,3.8,50,0.00,,,0.02,WUHU216HW,2013-10-08 19:53:00,
2013-10-08 15:58:00,70.6,48.1,30.25,SSE,158,2.0,3.1,45,0.00,,,0.02,WUHU216HW,2013-10-08 19:58:00,
2013-10-08 16:03:00,72.0,47.0,30.25,WSW,248,1.6,3.1,41,0.00,,,0.02,WUHU216HW,2013-10-08 20:03:00,
2013-10-08 16:08:00,70.7,45.9,30.25,SSE,158,1.3,2.9,41,0.00,,,0.02,WUHU216HW,2013-10-08 20:08:00,
2013-10-08 16:13:00,69.7,45.5,30.25,SE,135,1.6,2.9,42,0.00,,,0.02,WUHU216HW,2013-10-08 20:13:00,
2013-10-08 16:18:00,71.3,47.0,30.25,SE,135,2.7,2.7,42,0.00,,,0.02,WUHU216HW,2013-10-08 20:18:00,
2013-10-08 16:23:00,71.6,46.7,30.25,ESE,113,1.3,2.7,41,0.00,,,0.02,WUHU216HW,2013-10-08 20:23:00,
2013-10-08 16:28:00,70.2,45.4,30.26,SSE,158,4.3,4.3,41,0.00,,,0.02,WUHU216HW,2013-10-08 20:28:00,
2013-10-08 16:33:00,68.8,44.6,30.26,SE,135,2.0,4.3,42,0.00,,,0.02,WUHU216HW,2013-10-08 20:33:00,
2013-10-08 16:38:00,68.4,44.9,30.26,SE,135,1.8,3.4,43,0.00,,,0.02,WUHU216HW,2013-10-08 20:38:00,
2013-10-08 16:43:00,69.1,45.0,30.26,SSE,158,2.0,3.1,42,0.00,,,0.02,WUHU216HW,2013-10-08 20:43:00,
2013-10-08 16:48:00,68.6,44.6,30.26,South,180,0.4,2.0,42,0.00,,,0.02,WUHU216HW,2013-10-08 20:48:00,
2013-10-08 16:53:00,68.2,44.2,30.26,East,90,0.7,2.0,42,0.00,,,0.02,WUHU216HW,2013-10-08 20:53:00,
2013-10-08 16:58:00,69.3,45.7,30.26,SE,135,1.3,2.5,43,0.00,,,0.02,WUHU216HW,2013-10-08 20:58:00,
2013-10-08 17:03:00,69.8,45.1,30.26,East,90,2.2,3.8,41,0.00,,,0.02,WUHU216HW,2013-10-08 21:03:00,
2013-10-08 17:08:00,71.3,47.0,30.26,SE,135,0.9,3.8,42,0.00,,,0.02,WUHU216HW,2013-10-08 21:08:00,
2013-10-08 17:14:00,73.6,47.9,30.27,ESE,113,0.0,2.2,40,0.00,,,0.02,WUHU216HW,2013-10-08 21:14:00,
2013-10-08 17:19:00,76.7,49.9,30.27,ESE,113,1.3,2.9,39,0.00,,,0.02,WUHU216HW,2013-10-08 21:19:00,
2013-10-08 17:24:00,78.1,49.6,30.27,ESE,113,1.6,2.9,37,0.00,,,0.02,WUHU216HW,2013-10-08 21:24:00,
2013-10-08 17:29:00,77.8,47.8,30.28,ESE,113,0.7,2.7,35,0.00,,,0.02,WUHU216HW,2013-10-08 21:29:00,
2013-10-08 17:34:00,77.0,47.2,30.28,ESE,113,0.0,1.1,35,0.00,,,0.02,WUHU216HW,2013-10-08 21:34:00,
2013-10-08 17:39:00,76.3,46.5,30.28,ESE,113,0.0,0.7,35,0.00,,,0.02,WUHU216HW,2013-10-08 21:39:00,
2013-10-08 17:44:00,74.2,46.1,30.28,ESE,113,0.0,0.4,37,0.00,,,0.02,WUHU216HW,2013-10-08 21:44:00,
2013-10-08 17:49:00,73.1,45.9,30.29,ESE,113,0.4,0.7,38,0.00,,,0.02,WUHU216HW,2013-10-08 21:49:00,
2013-10-08 17:54:00,72.5,46.2,30.29,ESE,113,0.0,0.7,39,0.00,,,0.02,WUHU216HW,2013-10-08 21:54:00,
2013-10-08 17:59:00,71.8,44.7,30.29,ESE,113,0.0,0.4,38,0.00,,,0.02,WUHU216HW,2013-10-08 21:59:00,
2013-10-08 18:04:00,70.6,44.4,30.29,ESE,113,0.7,0.7,39,0.00,,,0.02,WUHU216HW,2013-10-08 22:04:00,
2013-10-08 18:09:00,68.9,43.7,30.29,ESE,113,0.0,0.7,40,0.00,,,0.02,WUHU216HW,2013-10-08 22:09:00,
2013-10-08 18:14:00,67.3,41.5,30.29,ESE,113,0.0,0.7,39,0.00,,,0.02,WUHU216HW,2013-10-08 22:14:00,
2013-10-08 18:19:00,66.1,41.0,30.29,ESE,113,0.0,0.0,40,0.00,,,0.02,WUHU216HW,2013-10-08 22:19:00,
2013-10-08 18:24:00,64.8,40.5,30.29,ESE,113,0.0,0.0,41,0.00,,,0.02,WUHU216HW,2013-10-08 22:24:00,
2013-10-08 18:29:00,63.7,40.7,30.29,ESE,113,0.0,0.0,43,0.00,,,0.02,WUHU216HW,2013-10-08 22:29:00,
2013-10-08 18:34:00,62.8,40.4,30.29,WSW,248,0.2,0.4,44,0.00,,,0.02,WUHU216HW,2013-10-08 22:34:00,
2013-10-08 18:39:00,61.9,40.2,30.29,ESE,113,0.0,0.4,45,0.00,,,0.02,WUHU216HW,2013-10-08 22:39:00,
2013-10-08 18:44:00,61.2,40.1,30.29,North,0,0.0,0.4,46,0.00,,,0.02,WUHU216HW,2013-10-08 22:44:00,
2013-10-08 18:49:00,60.7,40.2,30.29,North,0,0.0,0.7,47,0.00,,,0.02,WUHU216HW,2013-10-08 22:49:00,
2013-10-08 18:54:00,60.1,40.3,30.29,SSW,203,0.4,1.1,48,0.00,,,0.02,WUHU216HW,2013-10-08 22:54:00,
2013-10-08 18:59:00,59.6,39.9,30.29,WSW,248,0.0,1.1,48,0.00,,,0.02,WUHU216HW,2013-10-08 22:59:00,
2013-10-08 19:04:00,59.0,40.5,30.29,West,270,0.7,0.9,50,0.00,,,0.02,WUHU216HW,2013-10-08 23:04:00,
2013-10-08 19:08:00,58.5,40.5,30.29,North,0,0.0,0.9,51,0.00,,,0.02,WUHU216HW,2013-10-08 23:08:00,
2013-10-08 19:14:00,58.1,40.6,30.29,North,0,0.0,0.9,52,0.00,,,0.02,WUHU216HW,2013-10-08 23:14:00,
2013-10-08 19:19:00,58.0,41.4,30.30,NNW,338,0.4,0.7,54,0.00,,,0.02,WUHU216HW,2013-10-08 23:19:00,
2013-10-08 19:24:00,57.6,41.0,30.30,North,0,0.4,0.9,54,0.00,,,0.02,WUHU216HW,2013-10-08 23:24:00,
2013-10-08 19:29:00,57.2,40.8,30.30,NNW,338,1.8,1.8,54,0.00,,,0.02,WUHU216HW,2013-10-08 23:29:00,
2013-10-08 19:34:00,56.7,40.7,30.30,NW,315,1.6,1.8,55,0.00,,,0.02,WUHU216HW,2013-10-08 23:34:00,
2013-10-08 19:39:00,56.3,41.2,30.31,NNW,338,2.2,2.2,57,0.00,,,0.02,WUHU216HW,2013-10-08 23:39:00,
2013-10-08 19:44:00,56.0,41.4,30.31,NNW,338,0.4,2.2,58,0.00,,,0.02,WUHU216HW,2013-10-08 23:44:00,
2013-10-08 19:49:00,55.8,41.2,30.31,NW,315,2.5,2.5,58,0.00,,,0.02,WUHU216HW,2013-10-08 23:49:00,
2013-10-08 19:54:00,55.6,41.1,30.31,North,0,1.1,2.5,58,0.00,,,0.02,WUHU216HW,2013-10-08 23:54:00,
2013-10-08 19:59:00,55.4,41.3,30.31,NNW,338,1.1,1.3,59,0.00,,,0.02,WUHU216HW,2013-10-08 23:59:00,
2013-10-08 20:04:00,55.4,41.3,30.31,NNW,338,1.6,1.6,59,0.00,,,0.02,WUHU216HW,2013-10-09 00:04:00,
2013-10-08 20:09:00,55.4,41.3,30.31,NNW,338,1.6,1.6,59,0.00,,,0.02,WUHU216HW,2013-10-09 00:09:00,
2013-10-08 20:29:00,55.1,41.4,30.32,NE,45,0.2,0.2,60,0.00,,,0.02,WUHU216HW,2013-10-09 00:29:00,
2013-10-08 20:34:00,54.7,41.1,30.32,NNW,338,1.6,1.6,60,0.00,,,0.02,WUHU216HW,2013-10-09 00:34:00,
2013-10-08 20:39:00,54.5,41.0,30.32,NNW,338,1.6,1.8,60,0.00,,,0.02,WUHU216HW,2013-10-09 00:39:00,
2013-10-08 20:44:00,54.4,40.8,30.32,WNW,293,1.1,1.8,60,0.00,,,0.02,WUHU216HW,2013-10-09 00:44:00,
2013-10-08 20:49:00,54.4,40.8,30.33,NNW,338,1.3,1.8,60,0.00,,,0.02,WUHU216HW,2013-10-09 00:49:00,
2013-10-08 20:54:00,54.0,40.5,30.32,North,0,1.3,1.8,60,0.00,,,0.02,WUHU216HW,2013-10-09 00:54:00,
2013-10-08 20:59:00,53.8,40.7,30.33,North,0,0.4,1.8,61,0.00,,,0.02,WUHU216HW,2013-10-09 00:59:00,
2013-10-08 21:04:00,53.6,40.5,30.32,NNW,338,1.1,1.3,61,0.00,,,0.02,WUHU216HW,2013-10-09 01:04:00,
2013-10-08 21:09:00,53.5,40.3,30.32,NNW,338,1.8,2.0,61,0.00,,,0.02,WUHU216HW,2013-10-09 01:09:00,
2013-10-08 21:14:00,53.3,40.1,30.32,NNW,338,1.8,2.0,61,0.00,,,0.02,WUHU216HW,2013-10-09 01:14:00,
2013-10-08 21:19:00,53.1,40.4,30.33,NNW,338,1.1,1.8,62,0.00,,,0.02,WUHU216HW,2013-10-09 01:19:00,
2013-10-08 21:24:00,52.9,40.6,30.33,NW,315,1.3,1.8,63,0.00,,,0.02,WUHU216HW,2013-10-09 01:24:00,
2013-10-08 21:29:00,52.9,40.6,30.33,NW,315,1.1,1.6,63,0.00,,,0.02,WUHU216HW,2013-10-09 01:29:00,
2013-10-08 21:34:00,52.9,40.6,30.33,NW,315,1.8,1.8,63,0.00,,,0.02,WUHU216HW,2013-10-09 01:34:00,
2013-10-08 21:39:00,52.7,40.9,30.34,NNW,338,0.4,1.8,64,0.00,,,0.02,WUHU216HW,2013-10-09 01:39:00,
2013-10-08 21:44:00,52.7,40.9,30.34,NNW,338,0.0,1.1,64,0.00,,,0.02,WUHU216HW,2013-10-09 01:44:00,
2013-10-08 21:49:00,52.4,40.5,30.34,ESE,113,0.4,1.3,64,0.00,,,0.02,WUHU216HW,2013-10-09 01:49:00,
2013-10-08 21:54:00,51.8,40.0,30.34,SE,135,1.1,1.3,64,0.00,,,0.02,WUHU216HW,2013-10-09 01:54:00,
2013-10-08 21:59:00,51.1,39.3,30.34,SE,135,0.7,1.3,64,0.00,,,0.02,WUHU216HW,2013-10-09 01:59:00,
2013-10-08 22:04:00,50.4,38.6,30.34,SE,135,0.0,1.3,64,0.00,,,0.02,WUHU216HW,2013-10-09 02:04:00,
2013-10-08 22:09:00,50.2,38.4,30.34,North,0,1.1,1.6,64,0.00,,,0.02,WUHU216HW,2013-10-09 02:09:00,
2013-10-08 22:14:00,50.0,38.7,30.35,North,0,0.7,1.6,65,0.00,,,0.02,WUHU216HW,2013-10-09 02:14:00,
2013-10-08 22:19:00,50.2,38.9,30.35,North,0,0.7,0.9,65,0.00,,,0.02,WUHU216HW,2013-10-09 02:19:00,
2013-10-08 22:24:00,50.2,39.2,30.35,North,0,0.7,0.7,66,0.00,,,0.02,WUHU216HW,2013-10-09 02:24:00,
2013-10-08 22:29:00,50.2,39.2,30.35,North,0,0.4,0.9,66,0.00,,,0.02,WUHU216HW,2013-10-09 02:29:00,
2013-10-08 22:34:00,50.2,39.2,30.35,North,0,0.4,0.9,66,0.00,,,0.02,WUHU216HW,2013-10-09 02:34:00,
2013-10-08 22:39:00,50.2,39.7,30.35,SE,135,0.7,0.9,67,0.00,,,0.02,WUHU216HW,2013-10-09 02:39:00,
2013-10-08 22:44:00,50.0,39.1,30.35,SE,135,1.1,1.6,66,0.00,,,0.02,WUHU216HW,2013-10-09 02:44:00,
2013-10-08 22:49:00,49.5,38.6,30.35,ESE,113,2.5,2.5,66,0.00,,,0.02,WUHU216HW,2013-10-09 02:49:00,
2013-10-08 22:54:00,48.8,38.3,30.36,ESE,113,1.8,2.5,67,0.00,,,0.02,WUHU216HW,2013-10-09 02:54:00,
2013-10-08 22:59:00,48.1,38.0,30.35,ESE,113,1.3,2.5,68,0.00,,,0.02,WUHU216HW,2013-10-09 02:59:00,
2013-10-08 23:04:00,47.7,37.6,30.36,ESE,113,1.8,2.5,68,0.00,,,0.02,WUHU216HW,2013-10-09 03:04:00,
2013-10-08 23:09:00,47.3,37.7,30.35,ESE,113,0.7,2.2,69,0.00,,,0.02,WUHU216HW,2013-10-09 03:09:00,
2013-10-08 23:14:00,47.2,37.5,30.35,SE,135,1.1,1.3,69,0.00,,,0.02,WUHU216HW,2013-10-09 03:14:00,
2013-10-08 23:19:00,47.0,37.7,30.35,SE,135,1.1,2.7,70,0.00,,,0.02,WUHU216HW,2013-10-09 03:19:00,
2013-10-08 23:24:00,46.6,37.5,30.35,ESE,113,1.8,2.7,70,0.00,,,0.02,WUHU216HW,2013-10-09 03:24:00,
2013-10-08 23:29:00,46.3,37.5,30.35,ESE,113,1.3,1.8,71,0.00,,,0.02,WUHU216HW,2013-10-09 03:29:00,
2013-10-08 23:34:00,46.1,37.6,30.35,ESE,113,0.7,1.6,72,0.00,,,0.02,WUHU216HW,2013-10-09 03:34:00,
2013-10-08 23:39:00,46.1,37.6,30.35,SE,135,0.4,1.6,72,0.00,,,0.02,WUHU216HW,2013-10-09 03:39:00,
2013-10-08 23:44:00,46.1,37.9,30.35,SE,135,1.1,1.1,73,0.00,,,0.02,WUHU216HW,2013-10-09 03:44:00,
2013-10-08 23:49:00,45.9,37.7,30.35,SE,135,2.5,2.5,73,0.00,,,0.02,WUHU216HW,2013-10-09 03:49:00,
2013-10-08 23:54:00,45.7,37.5,30.35,SE,135,1.1,2.5,73,0.00,,,0.02,WUHU216HW,2013-10-09 03:54:00,
2013-10-08 23:59:00,45.5,37.4,30.36,SE,135,1.6,2.2,73,0.00,,,0.00,WUHU216HW,2013-10-09 03:59:00,